This is the latest recevied weather packets stored in our database for station/object WI0K. If no packets are shown the sender has not sent any weather packets the latest 10 day(s).
| Time | Temp. | Humidity | Pressure | Rain* | Wind** | Luminosity | Snow |
|---|---|---|---|---|---|---|---|
| 1778104940 | 3.33° C | 72% | 1019.4 hPa | 0 mm | - | 398 W/m² | - |
| 1778104914 | 2.78° C | 73% | 1019.5 hPa | 0 mm | - | 419 W/m² | - |
| 1778104640 | 2.78° C | 73% | 1019.5 hPa | 0 mm | - | 419 W/m² | - |
| 1778104339 | 2.78° C | 73% | 1019.4 hPa | 0 mm | - | 395 W/m² | - |
| 1778104038 | 2.78° C | 74% | 1019.4 hPa | 0 mm | - | 361 W/m² | - |
| 1778103980 | 2.78° C | 72% | 1019.5 hPa | 0 mm | - | 365 W/m² | - |
| 1778103738 | 2.78° C | 72% | 1019.5 hPa | 0 mm | - | 365 W/m² | - |
| 1778103684 | 2.78° C | 73% | 1019.5 hPa | 0 mm | - | 418 W/m² | - |
| 1778103437 | 2.78° C | 73% | 1019.5 hPa | 0 mm | - | 418 W/m² | - |
| 1778103136 | 2.78° C | 74% | 1019.5 hPa | 0 mm | - | 385 W/m² | - |
| 1778102836 | 2.78° C | 75% | 1019.6 hPa | 0 mm | - | 352 W/m² | - |
| 1778102535 | 2.78° C | 75% | 1019.6 hPa | 0 mm | - | 332 W/m² | - |
| 1778102234 | 2.78° C | 75% | 1019.6 hPa | 0 mm | - | 316 W/m² | - |
| 1778101934 | 2.78° C | 76% | 1019.7 hPa | 0 mm | - | 321 W/m² | - |
| 1778101633 | 2.78° C | 75% | 1019.7 hPa | 0 mm | - | 304 W/m² | - |
| 1778101332 | 2.22° C | 78% | 1019.8 hPa | 0 mm | - | 321 W/m² | - |
| 1778101032 | 2.22° C | 77% | 1019.8 hPa | 0 mm | - | 349 W/m² | - |
| 1778100731 | 2.22° C | 77% | 1019.9 hPa | 0 mm | - | 382 W/m² | - |
| 1778100431 | 2.78° C | 73% | 1019.9 hPa | 0 mm | - | 401 W/m² | - |
| 1778100130 | 3.33° C | 70% | 1020.1 hPa | 0 mm | - | 427 W/m² | - |
| 1778099829 | 3.33° C | 76% | 1020.1 hPa | 0 mm | - | 471 W/m² | - |
| 1778099529 | 3.33° C | 75% | 1020.1 hPa | 0 mm | - | 563 W/m² | - |
| 1778099479 | 3.33° C | 73% | 1020.2 hPa | 0 mm | - | 724 W/m² | - |
| 1778099228 | 3.33° C | 73% | 1020.2 hPa | 0 mm | - | 724 W/m² | - |
| 1778099168 | 3.33° C | 72% | 1020.1 hPa | 0 mm | - | 710 W/m² | - |
* Rain latest hour (hover to see other rain measurements)
** Current wind speed in m/s (hover to see current wind gust speed)